• Join FlightAware (Why Join?)
  • Login
  • US Flag 
09:24AM EDT


 

Airport Tracker/Info


-or-


 

Live Flight TrackerFlight Track Log ✈ LAN933 ✈ 24-Sep-2013 ✈ SAME / MDZ - SCEL / SCL

Flight Track Log - Related Links

Times and Time Zones

All times are in EDT time to prevent confusion due to time zone crossing. See the LAN933 flight status page for this flight to view local times or setup timezone preferences in your user account.

Time Position Orientation Groundspeed Altitude Reporting Facility
EDT Latitude Longitude Course Direction KTS MPH feet Rate Location/Type
04:37PM -32.8150 -68.7930 359° North 157 181 2,800  Level FlightAware
04:37PM -32.8020 -68.7850 27° Northeast 175 201 3,400 1,680 Climbing FlightAware
04:37PM -32.8000 -68.7800 65° Northeast 182 209 3,500 960 Climbing FlightAware
04:38PM -32.7930 -68.7530 73° East 226 260 3,900 1,200 Climbing FlightAware
04:38PM -32.7860 -68.7290 71° East 253 291 4,400 1,920 Climbing FlightAware
04:38PM -32.7820 -68.7220 56° Northeast 260 299 4,700 3,480 Climbing FlightAware
04:38PM -32.7670 -68.7030 47° Northeast 261 300 5,800 3,300 Climbing FlightAware
04:39PM -32.7540 -68.6890 42° Northeast 263 303 6,700 3,480 Climbing FlightAware
04:39PM -32.7340 -68.6680 41° Northeast 268 308 7,900 3,480 Climbing FlightAware
04:39PM -32.7150 -68.6470 43° Northeast 277 319 9,000 3,420 Climbing FlightAware
04:40PM -32.7010 -68.6310 44° Northeast 277 319 9,900 3,900 Climbing FlightAware
04:40PM -32.6920 -68.6130 59° Northeast 273 314 10,900 4,200 Climbing FlightAware
04:40PM -32.6900 -68.5960 82° East 278 320 11,600 2,580 Climbing FlightAware
04:40PM -32.6970 -68.5670 106° East 297 342 12,200 1,860 Climbing FlightAware
04:41PM -32.7120 -68.5500 136° Southeast 305 351 12,700 2,400 Climbing FlightAware
04:41PM -32.7240 -68.5430 154° Southeast 301 346 13,200 3,240 Climbing FlightAware
04:41PM -32.7430 -68.5400 172° South 290 334 14,000 2,820 Climbing FlightAware
04:41PM -32.7720 -68.5510 198° South 278 320 15,100 2,400 Climbing FlightAware
04:42PM -32.7820 -68.5630 225° Southwest 280 322 15,400 2,400 Climbing FlightAware
04:42PM -32.7860 -68.5710 239° Southwest 280 322 15,700 2,280 Climbing FlightAware
04:42PM -32.7900 -68.5900 256° West 280 322 16,200 2,160 Climbing FlightAware
04:43PM -32.7950 -68.6430 264° West 290 334 17,500 2,760 Climbing FlightAware
04:43PM -32.8000 -68.7020 264° West 290 334 19,400 2,580 Climbing FlightAware
04:44PM -32.8060 -68.7600 263° West 301 346 20,500 2,040 Climbing FlightAware
04:44PM -32.8110 -68.8200 264° West 302 348 21,900 2,400 Climbing FlightAware
04:45PM -32.8150 -68.8770 265° West 300 345 23,500 2,220 Climbing FlightAware
04:46PM -32.8180 -68.9410 267° West 313 360 24,600 1,320 Climbing FlightAware
04:46PM -32.8220 -69.0010 265° West 333 383 25,100 720 Climbing FlightAware
04:47PM -32.8270 -69.0770 266° West 357 411 25,600 960 Climbing FlightAware
04:47PM -32.8330 -69.1590 265° West 372 428 26,500 1,560 Climbing FlightAware
04:48PM -32.8380 -69.2420 266° West 374 430 27,700 1,140 Climbing FlightAware
04:49PM -32.8430 -69.3190 266° West 348 400 28,000 180 Climbing FlightAware
04:49PM -32.8470 -69.3850 266° West 351 404 28,000  Level FlightAware
04:50PM -32.8510 -69.4530 266° West 363 418 28,000  Level FlightAware
04:50PM -32.8550 -69.5130 265° West 364 419 28,000  Level FlightAware
04:51PM -32.8600 -69.5970 266° West 363 418 28,000  Level FlightAware
04:52PM -32.8640 -69.6600 266° West 361 415 28,000  Level FlightAware
04:53PM -32.8700 -69.7540 266° West 360 414 28,000  Level FlightAware
04:53PM -32.8750 -69.8150 264° West 360 414 28,000  Level FlightAware
04:54PM -32.8790 -69.8750 265° West 360 414 28,000  Level FlightAware
04:54PM -32.8830 -69.9350 265° West 360 414 28,000 -1,680 Level FlightAware
04:55PM -32.8800 -70.0390 272° West 322 371 26,000 -2,400 Descending FlightAware
04:56PM -32.8750 -70.0940 276° West 320 368 25,000 -1,740 Descending FlightAware
04:56PM -32.8690 -70.1600 276° West 312 359 24,000 -1,020 Descending FlightAware
04:57PM -32.8630 -70.2250 276° West 309 356 23,600 -1,920 Descending FlightAware
04:58PM -32.8550 -70.3070 277° West 310 357 21,300 -2,760 Descending FlightAware
04:58PM -32.8490 -70.3750 276° West 307 353 20,000 -2,160 Descending FlightAware
04:59PM -32.8430 -70.4380 276° West 303 349 18,500 -1,260 Descending FlightAware
05:00PM -32.8380 -70.4910 276° West 303 349 18,500  Level FlightAware
05:00PM -32.8340 -70.5420 275° West 303 349 18,500  Level FlightAware
05:01PM -32.8290 -70.5940 277° West 303 349 18,500  Level FlightAware
05:01PM -32.8250 -70.6450 275° West 303 349 18,500  Level FlightAware
05:02PM -32.8200 -70.6960 277° West 303 349 18,500  Level FlightAware
05:03PM -32.8160 -70.7470 275° West 303 349 18,500 -2,820 Level FlightAware
05:05PM -32.8855 -70.7516 183° South  Level Estimated
05:06PM -32.9214 -70.7541 183° South  Level Estimated
05:07PM -32.9574 -70.7565 183° South  Level Estimated
05:07PM -33.1710 -70.7980 183° South 235 270 5,000  Level FlightAware
05:07PM -33.1920 -70.7970 178° South 210 242 5,000 -240 Level FlightAware
05:07PM -33.2030 -70.7960 176° South 196 226 4,900 -1,080 Descending FlightAware
05:08PM -33.2310 -70.7950 178° South 190 219 4,300 -1,200 Descending FlightAware
05:08PM -33.2440 -70.7940 176° South 182 209 4,000 -840 Descending FlightAware
05:09PM -33.2620 -70.7930 177° South 162 186 3,700 -420 Descending FlightAware
05:09PM -33.2780 -70.7920 177° South 162 186 3,700 -780 Level FlightAware
05:11PM -33.3470 -70.7880 177° South 144 166 2,200 -960 Descending FlightAware
05:12PM -33.3940 -70.7860 178° South 144 166 -1,680 Descending FlightAware
05:12PM -33.3960 -70.7860 180° South 144 166  Level FlightAware
05:13PM -33.3920 -70.7700 73° East 144 166  Level FlightAware
05:13PM -33.3970 -70.7870 251° West 144 166  Level FlightAware
05:13PM -33.3990 -70.7710 99° East 144 166  Level FlightAware
05:14PM -33.3940 -70.7890 288° West 144 166  Level FlightAware
05:15PM -33.3950 -70.7730 94° East 144 166  Level FlightAware
05:16PM -33.3940 -70.7950 273° West 144 166  Level FlightAware
05:17PM -33.3960 -70.7760 97° East 144 166  Level FlightAware
05:17PM -33.3950 -70.7980 273° West 144 166  Level FlightAware
05:18PM -33.3890 -70.7810 67° East 144 166  Level FlightAware
05:20PM -33.3930 -70.7858 65° Northeast  Level Estimated
05:21PM -33.3930 -70.7858 244° Southwest  Level Estimated
05:22PM -33.3930 -70.7858 244° Southwest  Level Estimated